Regional Weather Roundup
Issued by NWS

Home | Current Version | Previous Version | Graphics & Text | Print | Product List | Glossary On
Versions: 1 2 3 4 5 6 7 8 9 10 11 12 13 14 15 16 17 18 19 20 21 22 23 24 25 26 27 28 29 30 31 32 33 34 35 36 37 38 39 40 41 42 43 44 45 46 47 48 49 50
000
ASUS43 KFSD 270410
RWRSD

WEATHER ROUNDUP FOR SOUTH DAKOTA
NATIONAL WEATHER SERVICE SIOUX FALLS SD
1000 PM CST MON JAN 26 2015

NOTE: "FAIR" INDICATES FEW OR NO CLOUDS BELOW 12,000 FEET WITH NO
SIGNIFICANT WEATHER AND/OR OBSTRUCTIONS TO VISIBILITY.


SDZ001>005-009-010-012>017-270500-
NORTHWEST AND NORTH CENTRAL SOUTH DAKOTA

CITY           SKY/WX    TMP DP  RH WIND       PRES   REMARKS
BUFFALO          N/A     43  32  65 W7        29.88S
FAITH            N/A     41  29  62 S13       29.94F
MOBRIDGE       CLEAR     35  30  82 SE6       29.96R
$$

SDZ012>016-024>037-041>051-057-063-072>074-270500-
SOUTHWEST AND SOUTH CENTRAL SOUTH DAKOTA

CITY           SKY/WX    TMP DP  RH WIND       PRES   REMARKS
RAPID CTY ARPT CLEAR     36  27  69 CALM      29.98F
PIERRE         CLEAR     33  27  78 E3        29.97F
CUSTER         CLEAR     49  26  41 NW6       30.09S
ELLSWORTH AFB  CLEAR     42  28  58 W8        29.98S
PHILIP         CLEAR     34  28  79 W6        29.98S WCI  29
PINE RIDGE     CLEAR     31  26  82 CALM      30.03S
SPEARFISH      FAIR      54  27  35 W10       30.01S
WINNER         FAIR      38  29  70 S7        30.01S
$$

SDZ004>011-016>023-039-040-270500-
NORTHEAST SOUTH DAKOTA

CITY           SKY/WX    TMP DP  RH WIND       PRES   REMARKS
ABERDEEN       CLEAR     31  28  89 NW6       30.02R WCI  25
WATERTOWN      CLEAR     31  29  92 NW3       29.99R
SISSETON         N/A     30  29  96 N5        30.00R WCI  25
$$

SDZ017-020-022-023-036>040-048>070-270500-
SOUTHEAST SOUTH DAKOTA

CITY           SKY/WX    TMP DP  RH WIND       PRES   REMARKS
SIOUX FALLS    PTCLDY    33  31  92 CALM      30.01R
HURON          PTCLDY    30  29  96 NW3       30.02R
CHAMBERLAIN    CLEAR     35  31  83 SE3       30.00S
MITCHELL       PTCLDY    32  29  88 NW7       30.03R WCI  26
YANKTON        CLEAR     37  34  87 W7        30.04R
$$

ABBREVIATIONS USED IN REMARKS
   TC - TEMPERATURE IN CELSIUS
  WCI - WIND CHILL INDEX
   HX - HEAT INDEX
  VSB - VISIBILITY



USA.gov is the U.S. government's official web portal to all federal, state and local government web resources and services.